San Luis Reservoir Weather Center

Moon Phase Calendar



San Luis Reservoir Water Level
Online Cameras

 


      

Current Conditions in Santa Nella Village
5/22/2024 10:55:10 PM

54°F
Feels Like 53
Clear
Humidity
87%
Pressure
29.8"
Wind
26 mph (WSW)
Dew Point
50°F
UV Index
0/10 (Low)
Visibility
6 mi

Hourly Forecast

Date & Time Wed, May 22
10:00 PM
Wed, May 22
11:00 PM
Thu, May 23
12:00 AM
Thu, May 23
1:00 AM
Thu, May 23
2:00 AM
Thu, May 23
3:00 AM
Thu, May 23
4:00 AM
Thu, May 23
5:00 AM
Thu, May 23
6:00 AM
Thu, May 23
7:00 AM
Thu, May 23
8:00 AM
Thu, May 23
9:00 AM
Thu, May 23
10:00 AM
Thu, May 23
11:00 AM
Thu, May 23
12:00 PM
Thu, May 23
1:00 PM
Thu, May 23
2:00 PM
Thu, May 23
3:00 PM
Thu, May 23
4:00 PM
Thu, May 23
5:00 PM
Thu, May 23
6:00 PM
Thu, May 23
7:00 PM
Thu, May 23
8:00 PM
Thu, May 23
9:00 PM
Thu, May 23
10:00 PM
Thu, May 23
11:00 PM
Fri, May 24
12:00 AM
Fri, May 24
1:00 AM
Fri, May 24
2:00 AM
Fri, May 24
3:00 AM
Fri, May 24
4:00 AM
Fri, May 24
5:00 AM
Fri, May 24
6:00 AM
Fri, May 24
7:00 AM
Fri, May 24
8:00 AM
Fri, May 24
9:00 AM
Fri, May 24
10:00 AM
Fri, May 24
11:00 AM
Fri, May 24
12:00 PM
Fri, May 24
1:00 PM
Fri, May 24
2:00 PM
Fri, May 24
3:00 PM
Fri, May 24
4:00 PM
Fri, May 24
5:00 PM
Fri, May 24
6:00 PM
Fri, May 24
7:00 PM
Fri, May 24
8:00 PM
Fri, May 24
9:00 PM
Condition
Clear

Clear

Clear

Clear

Clouds

Clouds

Clouds

Clouds

Clear

Clear

Clear

Clear

Clear

Clear

Clear

Clear

Clear

Clouds

Clouds

Clear

Clear

Clear

Clouds

Clouds

Clouds

Clouds

Clouds

Clouds

Clouds

Clouds

Clouds

Clouds

Clouds

Clouds

Clouds

Clouds

Clouds

Clouds

Clouds

Clouds

Clouds

Clouds

Clouds

Clouds

Clouds

Clouds

Clouds

Clouds
Temperature 54°F54°F53°F52°F51°F49°F48°F47°F47°F51°F57°F63°F68°F72°F76°F78°F79°F80°F80°F77°F73°F67°F60°F56°F52°F50°F49°F48°F48°F48°F49°F50°F49°F51°F54°F57°F59°F61°F62°F62°F62°F63°F64°F63°F62°F59°F56°F55°F
Feels Like 53°F53°F52°F51°F50°F45°F43°F43°F43°F49°F55°F62°F67°F71°F74°F77°F79°F80°F80°F76°F71°F65°F58°F54°F51°F49°F44°F42°F43°F43°F44°F44°F44°F50°F53°F56°F58°F60°F61°F61°F61°F62°F63°F62°F60°F58°F55°F54°F
Cloudiness 2%2%6%10%15%20%23%21%5%3%2%2%1%2%0%1%4%14%11%9%0%2%16%37%49%57%100%100%100%100%100%100%98%95%91%74%65%59%30%30%45%54%55%58%93%90%89%75%
Visibility 6 mi6 mi6 mi6 mi6 mi6 mi6 mi6 mi6 mi6 mi6 mi6 mi6 mi6 mi6 mi6 mi6 mi6 mi6 mi6 mi6 mi6 mi6 mi6 mi6 mi6 mi6 mi6 mi6 mi6 mi6 mi6 mi6 mi6 mi6 mi6 mi6 mi6 mi6 mi6 mi6 mi6 mi6 mi6 mi6 mi6 mi6 mi6 mi
Precipitation 0%0%0%0%0%0%0%0%0%0%0%0%0%0%0%0%0%0%0%0%0%0%0%0%0%0%0%0%0%0%0%0%0%0%0%0%0%0%0%0%0%0%0%0%0%0%0%0%
Humidity 86%87%88%88%89%89%88%88%86%75%57%45%38%33%29%26%24%25%26%30%36%44%55%64%72%78%82%85%85%85%84%83%83%80%75%71%69%66%65%63%63%60%56%57%61%71%81%86%
Dew Point 50°F50°F50°F49°F48°F46°F43°F43°F42°F42°F41°F41°F41°F41°F40°F39°F39°F40°F41°F42°F43°F43°F43°F42°F43°F43°F43°F43°F43°F43°F44°F44°F44°F44°F46°F47°F48°F48°F48°F48°F48°F48°F47°F47°F47°F48°F49°F50°F
Pressure 29.83"29.8"29.83"29.83"29.85"29.85"29.88"29.91"29.91"29.91"29.91"29.88"29.88"29.85"29.85"29.85"29.83"29.83"29.8"29.8"29.8"29.83"29.83"29.85"29.85"29.85"29.85"29.85"29.85"29.85"29.85"29.83"29.85"29.85"29.85"29.88"29.88"29.88"29.88"29.88"29.88"29.88"29.85"29.85"29.85"29.85"29.88"29.88"
Wind Speed 11.6 mph11.2 mph11.1 mph11.1 mph10.6 mph9.8 mph9.1 mph8.2 mph7.6 mph6.8 mph5.7 mph4.6 mph4 mph3.7 mph4.3 mph5.5 mph7 mph7.9 mph10 mph11.9 mph13.6 mph14.2 mph12.2 mph12.4 mph12.6 mph12.6 mph12.8 mph13 mph13.2 mph13.6 mph14.3 mph14.7 mph14.7 mph14.7 mph15.2 mph15.7 mph16 mph16.5 mph16.7 mph17.1 mph16.8 mph16.7 mph16.7 mph16.8 mph16.8 mph14.9 mph12.9 mph11.9 mph
Wind
Direction
242°
WSW
243°
WSW
244°
WSW
243°
WSW
245°
WSW
245°
WSW
251°
WSW
245°
WSW
242°
WSW
238°
WSW
239°
WSW
252°
WSW
260°
W
254°
WSW
265°
W
266°
W
267°
W
260°
W
253°
WSW
248°
WSW
249°
WSW
244°
WSW
244°
WSW
243°
WSW
244°
WSW
244°
WSW
243°
WSW
243°
WSW
242°
WSW
241°
WSW
240°
WSW
239°
WSW
240°
WSW
239°
WSW
243°
WSW
247°
WSW
247°
WSW
244°
WSW
243°
WSW
243°
WSW
244°
WSW
244°
WSW
245°
WSW
244°
WSW
244°
WSW
240°
WSW
239°
WSW
244°
WSW

Daily Forecast

Date High Low Precip. Humidity
Today
May 22

Clear
80 °F
54 °F
0%
29%
Thursday
May 23

Clear
80 °F
47 °F
0%
26%
Friday
May 24

Clouds
64 °F
48 °F
0%
63%
Saturday
May 25

Clear
71 °F
47 °F
0%
37%
Sunday
May 26

Clear
80 °F
45 °F
0%
21%
Monday
May 27

Clear
86 °F
53 °F
0%
20%
Tuesday
May 28

Clouds
85 °F
54 °F
0%
25%
Wednesday
May 29

Clear
87 °F
51 °F
0%
23%
Thursday
May 30

Clouds
91 °F
51 °F
0%
18%
Friday
May 31

Clear
93 °F
55 °F
0%
14%
Saturday
Jun 1

Clouds
81 °F
52 °F
0%
28%
Sunday
Jun 2

Clear
85 °F
49 °F
0%
23%
Monday
Jun 3

Clear
94 °F
51 °F
0%
18%
Tuesday
Jun 4

Clear
91 °F
57 °F
0%
27%
Wednesday
Jun 5

Clear
101 °F
57 °F
0%
16%
Thursday
Jun 6

Clouds
102 °F
63 °F
0%
15%

Temperature 8-14 Day Outlook



Precipitation 8-14 Day Outlook






About Us
Contact Us
Site Map
Search Site
Advertise With Us
   
SanLuis.LakesOnline.com
THE SAN LUIS RESERVOIR WEBSITE

Copyright 2024, Lakes Online
Privacy    |    Legal